Weather Roundup
Issued by NWS Springfield, MO

Home | Current Version | Previous Version | Text Only | Print | Product List | Glossary On
Versions: 1 2 3 4 5 6 7 8 9 10 11 12 13 14 15 16 17 18 19 20 21 22 23 24 25 26 27 28 29 30 31 32 33 34 35 36 37 38 39 40 41 42 43 44 45 46 47 48 49 50
000
NZUS99 KSGF 231907
HRRSGF

HOURLY WEATHER
NATIONAL WEATHER SERVICE SPRINGFIELD MO
100 PM CST THU NOV 23 2017

......SGF CWA......

CITY           SKY/WX    TMP DP  RH WIND       PRES   REMARKS
SPRINGFIELD    SUNNY     60  28  29 W10       30.02F
JOPLIN         SUNNY     59  28  30 W12       30.04F
WEST PLAINS    SUNNY     57  23  26 W10       30.03F
ROLLA          SUNNY     56  27  32 SW12      29.99F
OSAGE BEACH    SUNNY     58  27  30 SW9       30.00F

......SURROUNDING SGF CWA......

CITY           SKY/WX    TMP DP  RH WIND       PRES   REMARKS
CHANUTE        SUNNY     60  31  33 S9        30.03F
PARSONS        SUNNY     59  29  31 SW5       30.04F
COFFEYVILLE    SUNNY     60  28  29 SW7       30.04F
EMPORIA        SUNNY     66  35  31 VRB5      30.01F
GROVE OK       SUNNY     61  30  31 SW8       30.06F
ROGERS AR      SUNNY     58  27  30 W9        30.06F
SILOAM SPRINGS SUNNY     59  26  28 SW7       30.07F
HARRISON AR    SUNNY     62  26  25 NW7       30.04F
NEAR YELLVILLE SUNNY     59  25  27 VRB3      30.04F

......KANSAS AND MISSOURI......

CITY           SKY/WX    TMP DP  RH WIND       PRES   REMARKS
KANSAS CTY INT SUNNY     59  34  39 SW6       29.99F
DOWNTOWN KC    SUNNY     59  32  36 CALM      29.99F
COLUMBIA       SUNNY     56  29  35 W9        29.98F
SEDALIA        SUNNY     56  31  38 W10       30.01F
ST JOSEPH      SUNNY     58  34  40 CALM      29.99F
ST LOUIS       MOSUNNY   56  24  29 SW9       29.98F
SPIRIT OF STL  SUNNY     56  24  29 W13       29.97F
KIRKSVILLE     SUNNY     54  32  43 VRB7      29.96F
WICHITA        MOSUNNY   65  36  34 S3        30.02F
TOPEKA         SUNNY     61  34  36 CALM      30.00F
OLATHE         SUNNY     57  34  41 SW7       29.99F

......TENNESSEE......

CITY           SKY/WX    TMP DP  RH WIND       PRES   REMARKS
MEMPHIS        MOSUNNY   53  22  29 SW3       30.09F
NASHVILLE      MOSUNNY   51  24  34 VRB3      30.07F

......ARKANSAS.......

CITY           SKY/WX    TMP DP  RH WIND       PRES   REMARKS
FAYETTEVILLE   SUNNY     60  27  28 SW8       30.07F
FT SMITH       SUNNY     58  25  28 W7        30.08F
LITTLE ROCK    MOSUNNY   55  25  31 CALM      30.10F

......OKLAHOMA.......

CITY           SKY/WX    TMP DP  RH WIND       PRES   REMARKS
TULSA          MOSUNNY   61  26  26 SW7       30.05F
PONCA CITY     SUNNY     63  31  30 SW6       30.04F
MCALESTER      MOSUNNY   63  26  24 SW10      30.08F
OKLAHOMA CITY  PTSUNNY   64  28  25 CALM      30.06F

......IOWA............

CITY           SKY/WX    TMP DP  RH WIND       PRES   REMARKS
DES MOINES     PTSUNNY   51  29  42 NW8       29.95F
QUAD CITIES    SUNNY     47  24  40 W3        29.93F

......ILLINOIS........

CITY           SKY/WX    TMP DP  RH WIND       PRES   REMARKS
QUINCY         SUNNY     49  27  42 SW8       29.96F
CHICAGO        MOSUNNY   45  24  43 SW12      29.91F




USA.gov is the U.S. government's official web portal to all federal, state and local government web resources and services.